Regional Weather Roundup
Issued by NWS

Home | Current Version | Previous Version | Text Only | Print | Product List | Glossary On
Versions: 1 2 3 4 5 6 7 8 9 10 11 12 13 14 15 16 17 18 19 20 21 22 23 24 25 26 27 28 29 30 31 32 33 34 35 36 37 38 39 40 41 42 43 44 45 46 47 48 49 50
000
ASUS44 KFWD 282015
RWRTX
NORTH TEXAS HOURLY WEATHER ROUNDUP
NATIONAL WEATHER SERVICE FORT WORTH TX
300 PM CDT FRI AUG 28 2015

NOTE: "FAIR" INDICATES FEW OR NO CLOUDS BELOW 12,000 FEET WITH NO
SIGNIFICANT WEATHER AND/OR OBSTRUCTIONS TO VISIBILITY.

TXZ118-119-282100-
DALLAS/FORT WORTH METROPLEX

CITY           SKY/WX    TMP DP  RH WIND       PRES   REMARKS
DFW AIRPORT    MOSUNNY   95  60  31 SE12      29.95F HX  95
DALLAS LOVE    MOSUNNY   95  63  34 SE14      29.95F HX  96
FTW MEACHAM    SUNNY     97  62  31 E10G18    29.94F HX  98
DAL-EXECUTIVE  SUNNY     95  60  31 CALM      29.95F HX  95
FTW-ALLIANCE   MOSUNNY   96  62  32 SE12G17   29.94F HX  97
FTW-NAS-JRB    MOSUNNY   97  62  31 VRB3      29.94F HX  98
FTW-SPINKS     SUNNY     97  61  30 E8        29.97F HX  97
ARLINGTON      SUNNY     96  59  29 E10       29.95F HX  95
GRAND PRAIRIE  SUNNY     93  63  36 E3        29.97F HX  94
ADDISON        SUNNY     93  59  31 SE5       29.96F HX  92
MESQUITE       SUNNY     88  59  37 SE6       29.97F
LANCASTER      SUNNY     94  59  30 SE8       29.97F HX  93
$$

TXZ091>094-102>105-117-120-121-131>134-282100-
NORTH CENTRAL TEXAS

CITY           SKY/WX    TMP DP  RH WIND       PRES   REMARKS
SHRMAN/DENISON MOSUNNY   96  64  35 S7        29.97F HX  97
GAINESVILLE    PTSUNNY   91  62  39 SE10G16   29.97F HX  91
BOWIE          MOSUNNY   93  60  33 SE6       29.96F HX  93
BRIDGEPORT     MOSUNNY   95  64  36 SE9       29.96F HX  97
DECATUR        SUNNY     94  59  31 S8        29.96F HX  93
DENTON         MOSUNNY   94  62  34 SE8       29.94F HX  94
MCKINNEY       SUNNY     92  62  36 E8        29.96F HX  92
GREENVILLE     SUNNY     91  59  33 SE8       29.98F HX  90
ROCKWALL       SUNNY     93  63  37 CALM      29.95F HX  94
TERRELL        SUNNY     92  62  36 N3        29.97F HX  92
WAXAHACHIE     SUNNY     94  63  35 S6        29.98F HX  95
CLEBURNE         N/A     93  63  36 VRB5G12   29.98F HX  94
GRANBURY       SUNNY     95  60  31 SE3       29.96F HX  95
$$

TXZ083>090-098>101-113>116-127>130-139>142-154-155-282100-
WESTERN NORTH TEXAS

CITY           SKY/WX    TMP DP  RH WIND       PRES   REMARKS
WICHITA FALLS  PTSUNNY   94  62  34 SW12      29.92F HX  94
WF-KICKAPOO    PTSUNNY   95  60  31 SE5       29.94F HX  95
VERNON         PTSUNNY   94  50  22 CALM      29.94F HX  91
ABILENE        MOSUNNY   97  53  22 S12       29.98F HX  94
ABILENE-DYESS  PTSUNNY   98  53  22 S14       29.96F HX  96
BRECKENRIDGE   SUNNY     98  58  26 S9        29.94F HAZE    HX  97
GRAHAM         MOSUNNY   98  62  30 S5        29.93S HX  99
MINERAL WELLS  SUNNY     94  64  37 SE6       29.94F HX  95
STEPHENVILLE   SUNNY     92  60  33 SE6       30.01F HX  92
COMANCHE       SUNNY     97  59  28 S3        29.97F HX  96
BROWNWOOD      SUNNY     93  59  31 SW7       29.96F HX  92
COLEMAN        SUNNY     97  58  27 S12       29.99F HX  95
BRADY          SUNNY     99  54  22 CALM      29.98F HX  96
$$

TXZ143>147-156>162-174-175-282100-
CENTRAL TEXAS

CITY           SKY/WX    TMP DP  RH WIND       PRES   REMARKS
WACO           SUNNY     95  60  31 S9        29.96F HX  95
WACO-TSTC      SUNNY     93  61  33 E3        29.96F HX  93
WACO-MCGREGOR  SUNNY     96  60  30 E8        29.96  HX  96
HILLSBORO      SUNNY     94  58  29 SE7       29.96F HX  92
CORSICANA      SUNNY     93  64  38 E3        29.98F HX  94
MEXIA          SUNNY     95  61  32 E16       29.96F HX  95
HEARNE         SUNNY     93  61  34 NE3       29.98F HX  93
CAMERON        SUNNY     94  61  32 CALM      29.96F HX  94
TEMPLE         SUNNY     93  61  33 SE7       29.97F HX  93
KILLEEN        SUNNY     95  58  29 SE10      29.96F HX  93
KILLEEN-SKYLRK SUNNY     95  63  34 S6        29.96F HX  96
FORT HOOD      SUNNY     94  60  32 SE8       29.95F HX  94
GATESVILLE     SUNNY     95  59  30 CALM      29.98F HX  94
HAMILTON       SUNNY     96  57  27 S10       29.99F HX  95
LAMPASAS       SUNNY     96  58  28 S5        29.97F HX  95
$$

TXZ095>097-106>112-122>126-135>138-148>153-164>167-282100-
EAST TEXAS

CITY           SKY/WX    TMP DP  RH WIND       PRES   REMARKS
PARIS          SUNNY     90  61  37 S6        29.99F
SULPHUR SPRNGS SUNNY     92  60  34 SE3       30.01F HX  91
MOUNT PLEASANT SUNNY     89  58  35 CALM      30.00F
GILMER         SUNNY     87  62  44 E6        30.00F
MINEOLA        SUNNY     90  57  33 CALM      30.00F
TYLER          SUNNY     92  63  38 NE9       29.99F HX  93
LONGVIEW       SUNNY     89  62  40 MISG      29.99F
MARSHALL       SUNNY     89  61  39 CALM      30.01F
ATHENS         SUNNY     88  64  45 N6        29.97F
PALESTINE      SUNNY     91  64  39 N7        29.99F HX  92
JACKSONVILLE   SUNNY     89  60  36 NE8       30.02F
HENDERSON      SUNNY     88  62  41 NE3       30.00F
CENTER         FAIR      90  59  34 SE6       29.98F
NACOGDOCHES    SUNNY     91  61  35 SE7       29.98F HX  91
LUFKIN         SUNNY     91  62  37 NW7       29.98F HX  91
$$

SUPPLEMENTAL OBSERVATIONS (CENTRAL)

CITY           SKY/WX    TMP DP  RH WIND       PRES   REMARKS
LAKE TEXOMA      N/A     91  63  38 SE7         N/A  HX  92
CADDO GRASSLND   N/A     93  63  36 S9          N/A  HX  94
PAT MAYSE LAKE   N/A     88  63  42 SE8         N/A
GREENVILLE       N/A    N/A N/A N/A S7          N/A
CEDAR HILL       N/A    100  59  25 SE2         N/A  HX 100
LAKE LIMESTONE   N/A     97  57  26 NE8         N/A  HX  95
MCGREGOR         N/A     97  57  26 SE8         N/A  HX  95
TEMPLE           N/A     95  59  30 SE6G15      N/A  HX  94
$$

SUPPLEMENTAL OBSERVATIONS (WEST)

CITY           SKY/WX    TMP DP  RH WIND       PRES   REMARKS
MILLERS CREEK    N/A     97  63  32 S9          N/A  HX  98
POSSUM KINGDOM   N/A    100  61  27 SE8         N/A  HX 101
LBJ GRASSLAND    N/A     97  63  32 SE7         N/A  HX  98
GRANBURY         N/A     97  61  30 SE6G15      N/A  HX  97
COMANCHE         N/A     97  57  26 SE7G22      N/A  HX  95
HAMBY            N/A     99  50  19 S12G20      N/A  HX  95
IVIE RESERVOIR   N/A     99  52  20 SE8         N/A  HX  96
COLORADO BEND    N/A     97  54  23 S8G17       N/A  HX  94
$$

SUPPLEMENTAL OBSERVATIONS (EAST)

CITY           SKY/WX    TMP DP  RH WIND       PRES   REMARKS
CLARKSVILLE      N/A     90  59  35 SE6         N/A
TEXARKANA        N/A     90  59  35 SE3         N/A
LINDEN           N/A     91  57  31 NE2         N/A  HX  90
CADDO LAKE       N/A     90  59  35 NE3         N/A
GILMER           N/A     90  63  40 SE5         N/A  HX  90
HENDERSON        N/A     90  61  37 N6          N/A
LUFKIN           N/A    N/A N/A N/A MISG        N/A
N SABINE NF      N/A     95  59  30 MISG        N/A  HX  94
S SABINE NF      N/A     91  55  29 VRB6        N/A
$$

SUPPLEMENTAL OBSERVATIONS ARE A COLLECTION OF AUTOMATED INSTRUMENTS
THAT ARE MAINTAINED BY A VARIETY OF FEDERAL AND STATE AGENCIES.
CERTAIN ELEMENTS...SUCH AS HUMIDITY VALUES AND SUSTAINED WIND
SPEEDS...MAY BE APPROXIMATED.



USA.gov is the U.S. government's official web portal to all federal, state and local government web resources and services.